Precipitable_Water
0.10 0.09 0.07 0.08 0.08 0.09 0.10 0.10 0.10 0.10 0.12 0.11 0.09 0.09 0.08 0.09 0.10 0.14 0.22 0.28 0.38 0.43 0.50 0.53 0.51 0.52 0.76 1.10 1.34 1.64 1.54 1.54 1.46 1.45 1.44 1.38 1.32 1.25 1.26 1.28 1.20 1.03 0.95 0.90
0.10 0.08 0.09 0.10 0.11 0.11 0.11 0.11 0.11 0.12 0.14 0.13 0.12 0.11 0.11 0.09 0.08 0.09 0.16 0.24 0.31 0.37 0.47 0.50 0.51 0.50 0.56 0.96 1.25 1.64 1.45 1.46 1.45 1.43 1.46 1.43 1.37 1.33 1.24 1.28 1.23 1.04 0.94 0.91
0.10 0.10 0.12 0.11 0.12 0.11 0.12 0.11 0.12 0.12 0.13 0.13 0.13 0.11 0.12 0.12 0.12 0.10 0.11 0.20 0.28 0.33 0.42 0.50 0.49 0.46 0.57 0.90 1.14 1.52 1.39 1.52 1.54 1.41 1.52 1.49 1.45 1.38 1.25 1.26 1.24 1.10 0.93 0.93
0.13 0.13 0.12 0.12 0.12 0.13 0.11 0.15 0.14 0.14 0.12 0.09 0.14 0.06 0.11 0.12 0.11 0.10 0.08 0.13 0.22 0.31 0.38 0.47 0.52 0.50 0.49 0.76 1.11 1.33 1.50 1.50 1.52 1.43 1.42 1.34 1.23 1.19 1.24 1.22 1.26 1.16 1.00 0.93
0.12 0.12 0.12 0.12 0.13 0.15 0.14 0.17 0.16 0.16 0.14 0.14 0.12 0.11 0.11 0.17 0.11 0.10 0.10 0.11 0.17 0.26 0.35 0.41 0.51 0.51 0.50 0.63 0.97 1.43 1.43 1.44 1.55 1.45 1.37 1.31 1.34 1.33 1.31 1.30 1.26 1.21 1.08 1.01
0.14 0.16 0.15 0.16 0.17 0.18 0.18 0.16 0.15 0.13 0.13 0.09 0.12 0.12 0.12 0.14 0.17 0.18 0.18 0.09 0.16 0.22 0.31 0.40 0.52 0.55 0.49 0.71 0.92 1.21 1.46 1.42 1.54 1.45 1.40 1.33 1.29 1.30 1.28 1.27 1.25 1.21 1.11 1.03
0.13 0.14 0.16 0.18 0.16 0.18 0.17 0.14 0.08 0.08 0.10 0.09 0.14 0.11 0.13 0.17 0.20 0.20 0.19 0.18 0.12 0.22 0.25 0.36 0.44 0.52 0.51 0.63 0.92 1.13 1.29 1.23 1.40 1.44 1.39 1.37 1.35 1.29 1.27 1.26 1.23 1.19 1.12 1.04
0.10 0.10 0.14 0.17 0.17 0.16 0.15 0.15 0.10 0.06 0.07 0.08 0.11 0.11 0.13 0.18 0.21 0.22 0.20 0.23 0.20 0.20 0.26 0.38 0.43 0.46 0.50 0.57 1.00 1.09 1.30 1.22 1.37 1.35 1.43 1.41 1.47 1.35 1.32 1.34 1.31 1.26 1.19 1.16
0.11 0.11 0.16 0.17 0.19 0.19 0.14 0.12 0.16 0.11 0.12 0.09 0.13 0.14 0.21 0.17 0.19 0.20 0.20 0.21 0.27 0.26 0.28 0.34 0.39 0.45 0.52 0.60 0.86 0.97 1.29 1.25 1.30 1.37 1.45 1.39 1.40 1.38 1.36 1.37 1.37 1.31 1.29 1.25
0.15 0.11 0.15 0.17 0.20 0.21 0.16 0.18 0.11 0.11 0.07 0.07 0.09 0.12 0.11 0.14 0.17 0.19 0.18 0.20 0.28 0.30 0.37 0.35 0.41 0.47 0.54 0.64 0.81 1.08 1.10 1.29 1.27 1.39 1.40 1.36 1.37 1.42 1.38 1.41 1.35 1.34 1.33 1.31
0.17 0.16 0.13 0.17 0.15 0.15 0.15 0.13 0.14 0.13 0.12 0.08 0.07 0.10 0.19 0.16 0.18 0.17 0.19 0.26 0.34 0.32 0.35 0.37 0.43 0.55 0.57 0.61 0.78 0.97 1.08 1.17 1.17 1.25 1.26 1.33 1.32 1.28 1.29 1.32 1.36 1.26 1.33 1.32
0.18 0.16 0.13 0.13 0.19 0.21 0.18 0.15 0.15 0.09 0.09 0.11 0.10 0.10 0.20 0.19 0.20 0.21 0.22 0.28 0.37 0.39 0.35 0.39 0.50 0.53 0.56 0.64 0.72 0.83 1.08 1.13 1.22 1.25 1.22 1.26 1.28 1.29 1.31 1.31 1.33 1.29 1.24 1.27
0.17 0.13 0.11 0.11 0.17 0.20 0.16 0.16 0.16 0.15 0.13 0.11 0.09 0.10 0.19 0.20 0.21 0.22 0.25 0.31 0.37 0.40 0.44 0.50 0.51 0.53 0.60 0.64 0.69 0.80 1.00 1.21 1.22 1.14 1.20 1.28 1.24 1.21 1.21 1.24 1.27 1.28 1.25 1.23
0.17 0.14 0.14 0.11 0.13 0.17 0.14 0.15 0.16 0.15 0.11 0.11 0.11 0.13 0.17 0.20 0.20 0.25 0.29 0.34 0.40 0.44 0.51 0.58 0.59 0.57 0.64 0.67 0.65 0.82 1.00 1.04 1.20 1.06 1.09 1.13 1.12 1.12 1.19 1.20 1.21 1.20 1.24 1.23
0.15 0.11 0.14 0.16 0.18 0.19 0.16 0.15 0.15 0.14 0.14 0.11 0.13 0.14 0.17 0.19 0.19 0.26 0.29 0.34 0.37 0.43 0.47 0.51 0.59 0.64 0.70 0.69 0.71 0.79 0.94 1.09 1.13 1.13 1.10 1.05 1.04 1.07 1.12 1.15 1.14 1.11 1.15 1.20
0.14 0.11 0.14 0.16 0.20 0.19 0.16 0.15 0.16 0.16 0.16 0.15 0.15 0.16 0.21 0.24 0.26 0.27 0.30 0.31 0.33 0.37 0.42 0.47 0.52 0.58 0.63 0.69 0.71 0.76 0.84 0.92 1.01 1.03 1.01 1.04 0.99 0.96 0.96 1.01 1.03 1.02 1.03 1.07
0.12 0.12 0.12 0.11 0.16 0.17 0.14 0.15 0.16 0.17 0.18 0.17 0.15 0.18 0.22 0.23 0.25 0.27 0.29 0.33 0.35 0.37 0.39 0.42 0.48 0.55 0.64 0.69 0.71 0.76 0.81 0.85 0.87 0.91 0.93 0.92 0.91 0.89 0.86 0.87 0.87 0.89 0.93 0.98
0.11 0.11 0.12 0.12 0.14 0.11 0.17 0.19 0.20 0.18 0.19 0.19 0.20 0.22 0.23 0.26 0.30 0.33 0.36 0.35 0.35 0.42 0.46 0.49 0.52 0.55 0.64 0.72 0.76 0.82 0.85 0.84 0.85 0.89 0.90 0.90 0.86 0.85 0.86 0.87 0.82 0.83 0.87 0.92
0.12 0.11 0.10 0.11 0.12 0.16 0.18 0.17 0.18 0.18 0.17 0.22 0.21 0.24 0.27 0.29 0.31 0.32 0.39 0.41 0.43 0.45 0.48 0.50 0.55 0.57 0.61 0.68 0.78 0.82 0.86 0.84 0.84 0.83 0.82 0.85 0.87 0.87 0.85 0.83 0.82 0.85 0.88 0.87
0.12 0.12 0.11 0.10 0.10 0.11 0.16 0.18 0.21 0.22 0.16 0.22 0.24 0.24 0.26 0.29 0.25 0.30 0.39 0.42 0.44 0.48 0.51 0.54 0.59 0.62 0.65 0.67 0.75 0.80 0.83 0.80 0.76 0.78 0.81 0.85 0.83 0.83 0.83 0.82 0.81 0.84 0.84 0.85
0.09 0.09 0.08 0.09 0.10 0.14 0.17 0.18 0.21 0.14 0.16 0.24 0.25 0.26 0.27 0.26 0.29 0.34 0.40 0.42 0.46 0.50 0.54 0.58 0.62 0.63 0.66 0.70 0.75 0.76 0.80 0.79 0.86 0.88 0.88 0.87 0.86 0.83 0.81 0.80 0.80 0.79 0.78 0.80
0.09 0.08 0.08 0.09 0.09 0.09 0.17 0.17 0.16 0.20 0.24 0.25 0.26 0.27 0.29 0.31 0.34 0.37 0.39 0.43 0.46 0.49 0.55 0.60 0.63 0.63 0.68 0.71 0.72 0.72 0.74 0.81 0.89 0.88 0.86 0.84 0.82 0.81 0.81 0.80 0.79 0.76 0.78 0.78
0.09 0.11 0.09 0.10 0.10 0.15 0.17 0.18 0.22 0.24 0.25 0.27 0.28 0.30 0.31 0.32 0.34 0.37 0.40 0.44 0.47 0.51 0.54 0.58 0.60 0.63 0.66 0.71 0.75 0.75 0.79 0.85 0.90 0.89 0.86 0.87 0.87 0.86 0.86 0.84 0.82 0.83 0.83 0.84
0.13 0.14 0.10 0.10 0.12 0.13 0.15 0.18 0.21 0.24 0.25 0.28 0.31 0.33 0.34 0.33 0.34 0.35 0.36 0.38 0.41 0.44 0.48 0.53 0.59 0.60 0.65 0.69 0.72 0.75 0.79 0.85 0.85 0.85 0.86 0.87 0.85 0.84 0.86 0.86 0.86 0.86 0.85 0.81
0.12 0.12 0.11 0.10 0.12 0.12 0.15 0.17 0.21 0.24 0.27 0.29 0.30 0.32 0.33 0.33 0.32 0.33 0.33 0.35 0.37 0.40 0.42 0.46 0.49 0.53 0.58 0.64 0.69 0.73 0.77 0.81 0.82 0.82 0.82 0.82 0.84 0.83 0.82 0.83 0.84 0.85 0.87 0.87
0.12 0.11 0.10 0.09 0.12 0.12 0.13 0.17 0.22 0.24 0.27 0.29 0.29 0.30 0.32 0.33 0.31 0.31 0.31 0.33 0.35 0.36 0.40 0.43 0.45 0.50 0.55 0.59 0.62 0.66 0.71 0.75 0.75 0.77 0.81 0.81 0.81 0.81 0.81 0.80 0.80 0.86 0.86 0.87
Wind_Speed
31 25 23 25 24 25 26 27 30 30 28 30 35 40 45 48 53 54 50 52 54 53 53 54 55 51 49 52 54 55 56 52 53 51 48 46 43 41 38 38 38 35 36 35
25 18 23 25 25 25 25 27 28 29 27 26 29 33 37 41 48 53 55 52 54 54 53 54 55 54 53 53 56 55 57 58 56 53 51 47 45 41 39 38 38 38 36 37
21 21 24 25 26 24 24 25 27 29 29 28 28 31 30 33 39 47 56 55 55 54 54 54 55 59 54 55 57 55 59 59 57 54 51 48 45 42 41 41 39 39 37 38
19 23 25 24 24 25 26 27 27 28 25 21 20 21 23 26 30 36 46 55 55 56 56 55 55 56 59 56 57 61 56 61 59 57 53 50 48 44 43 41 39 39 38 38
22 24 21 21 23 26 27 29 27 28 23 18 18 11 14 16 16 25 37 47 51 54 55 56 57 56 58 57 58 51 57 64 60 58 53 52 43 44 42 42 41 40 39 39
23 16 17 20 24 27 28 30 28 17 10 7 10 7 6 11 13 15 21 44 48 49 52 54 54 55 57 56 57 56 47 67 57 55 54 52 49 46 44 43 43 41 40 39
24 17 15 18 26 25 30 28 20 12 7 9 11 15 7 14 16 15 20 27 46 47 49 53 54 54 57 56 56 55 53 53 51 56 54 51 50 47 45 44 43 42 41 40
21 17 19 26 25 24 26 26 17 13 14 15 18 8 5 19 20 20 19 24 33 42 50 50 51 53 57 56 54 56 45 60 52 57 52 50 49 46 45 45 44 42 42 40
18 15 25 21 22 25 25 26 23 13 16 13 8 13 7 29 24 19 13 22 29 39 46 49 49 50 55 55 54 58 50 49 53 54 51 48 49 46 46 45 45 43 43 41
16 19 19 26 19 20 25 25 19 14 11 15 15 10 17 28 27 20 9 18 27 38 42 46 46 49 52 53 52 53 55 41 50 47 49 47 47 43 44 46 47 43 44 42
20 15 20 23 22 21 26 26 18 13 9 12 16 9 21 25 26 18 7 13 21 36 41 44 46 46 50 52 52 49 49 48 50 47 44 44 44 43 44 41 43 43 38 41
16 16 21 25 13 15 25 28 20 13 15 13 13 11 23 23 22 12 1 11 18 27 37 39 42 44 47 50 51 47 45 46 47 48 46 44 44 43 41 36 39 40 38 38
19 16 21 18 12 16 20 29 22 15 15 16 17 14 23 23 18 10 6 10 17 23 27 34 41 41 44 47 49 48 43 41 49 46 44 39 42 42 42 39 38 37 37 36
18 16 16 17 22 20 19 30 23 17 16 18 18 20 20 24 20 12 11 9 17 22 24 25 33 39 40 44 47 45 43 39 41 45 45 39 38 39 39 38 36 36 37 36
14 14 20 22 17 10 18 27 23 22 20 20 24 18 21 23 15 12 8 10 14 18 21 24 28 30 37 40 44 46 44 34 36 40 40 38 38 38 37 36 35 34 35 35
14 14 21 18 11 13 10 24 23 20 18 20 21 17 22 18 15 12 12 8 11 15 18 22 25 27 31 34 40 44 43 39 37 39 38 37 35 37 38 36 34 33 33 33
12 16 17 11 17 11 9 23 22 20 17 22 22 20 20 18 15 15 14 10 9 12 16 19 24 27 29 31 33 39 39 38 38 36 37 37 36 36 37 36 35 33 33 33
13 16 11 12 16 7 9 21 22 19 14 21 23 20 19 17 12 13 16 12 8 9 13 16 21 25 28 30 31 31 36 35 35 36 35 35 36 36 36 36 34 33 33 33
12 11 10 10 11 6 8 23 24 18 11 23 22 18 18 17 12 14 18 16 12 7 9 14 18 23 25 29 30 31 34 34 34 33 34 34 35 36 36 36 35 34 33 33
11 7 8 10 7 7 14 24 23 13 8 25 20 17 15 14 12 12 16 12 13 10 8 10 14 18 22 25 29 31 32 33 33 33 32 32 33 35 35 35 35 34 33 33
9 7 8 9 5 4 16 23 17 14 13 22 20 16 13 9 6 7 11 12 13 15 11 8 11 15 17 21 25 27 28 29 31 32 32 32 32 32 33 33 33 33 33 32
7 7 6 6 5 5 19 15 14 13 17 17 17 14 13 12 10 7 11 12 11 12 11 11 11 12 15 18 22 25 25 26 28 29 30 31 32 32 32 32 32 32 32 31
5 7 7 6 7 12 15 10 14 14 15 16 15 14 12 12 11 11 10 10 12 12 12 10 10 9 11 14 17 21 23 25 27 28 29 29 30 31 32 31 31 31 31 32
8 9 9 10 4 11 11 10 14 14 14 14 14 12 10 10 10 9 9 9 9 9 8 7 7 8 9 10 12 16 20 23 26 27 28 29 30 29 30 30 31 30 30 30
11 11 11 14 10 12 5 14 14 14 13 13 13 11 9 8 9 9 8 8 7 7 6 6 5 4 5 7 9 12 15 20 23 25 27 28 28 29 28 29 29 30 29 30
10 11 12 13 14 12 14 13 13 12 11 11 11 9 8 7 7 7 6 6 5 4 4 3 3 2 4 6 8 11 13 17 20 23 24 27 28 28 28 28 27 28 28 28
Wind_Direction
334 332 342 335 327 317 309 302 297 295 293 282 270 265 259 251 245 241 238 234 231 225 223 221 219 217 214 211 208 205 204 203 202 203 203 203 203 205 205 206 205 203 202 201
338 344 342 336 327 320 312 306 302 301 299 290 284 275 264 253 245 239 234 232 229 225 221 219 217 215 213 210 209 206 205 204 204 205 205 204 205 207 208 207 206 206 204 203
334 335 337 336 334 329 324 315 312 306 304 293 288 280 270 258 246 239 231 229 227 222 219 216 217 213 212 209 208 209 206 203 203 202 203 203 204 206 206 206 205 206 204 203
330 332 334 335 335 341 331 327 318 312 309 299 300 297 286 270 256 241 229 223 224 221 218 215 214 211 211 209 208 209 206 201 203 201 201 203 206 206 207 206 206 206 205 205
333 331 338 339 344 341 332 332 318 310 302 294 298 287 308 291 257 242 234 222 219 217 215 213 211 211 209 209 207 206 208 201 201 201 203 205 200 204 206 206 205 205 205 205
332 332 341 338 342 339 339 335 325 313 323 324 309 321 336 345 315 276 252 221 219 213 210 209 208 208 206 207 206 207 209 202 198 200 203 205 204 203 204 204 204 204 204 204
342 339 346 350 342 344 347 346 350 357 339 329 326 321 11 348 333 304 255 231 216 214 207 205 205 205 204 204 204 205 205 197 202 202 202 203 204 203 202 204 204 203 203 204
351 354 357 346 350 346 350 354 346 337 341 324 317 345 347 349 329 312 258 229 217 210 206 202 203 203 203 202 202 203 196 206 198 196 198 202 202 202 204 204 204 204 204 204
345 343 341 352 353 1 349 355 336 318 315 319 339 354 321 339 337 322 268 220 213 207 201 201 202 201 201 200 200 201 203 202 199 202 200 201 203 202 204 205 205 205 205 204
341 333 340 348 353 1 358 352 352 351 339 338 334 336 348 349 341 330 285 217 212 201 197 194 197 198 197 198 198 201 203 198 196 198 198 198 202 201 202 207 203 207 205 201
337 338 335 341 349 1 5 1 1 341 338 344 340 352 355 346 343 331 291 208 204 194 194 193 195 194 195 196 196 198 201 200 201 202 200 200 204 206 205 209 202 201 193 196
347 339 339 333 9 11 14 4 2 5 354 350 335 339 358 351 346 344 304 186 180 188 190 191 191 192 193 193 193 195 196 199 198 200 204 206 202 202 199 191 193 192 194 200
342 345 344 354 8 355 4 8 3 356 357 6 347 338 348 354 358 16 86 142 167 174 180 189 188 188 189 192 192 193 193 195 197 198 196 196 198 200 199 199 199 199 201 200
336 335 335 338 333 338 1 8 7 5 6 351 1 336 359 0 10 41 64 132 150 163 169 170 180 184 186 189 190 189 193 195 195 196 195 195 195 197 197 199 200 202 202 202
346 339 341 338 336 9 16 10 3 6 13 9 354 2 11 7 22 31 75 122 147 155 165 171 176 178 182 186 188 189 190 186 188 188 191 196 198 197 197 197 198 200 202 205
340 336 342 340 359 350 10 9 6 8 10 7 13 21 11 14 26 40 61 98 154 165 172 178 181 181 184 186 188 191 195 198 195 196 198 199 199 200 200 201 201 203 205 206
331 341 343 352 349 355 17 10 3 4 20 18 23 8 8 19 32 53 55 75 120 161 177 184 188 190 190 190 193 193 195 199 199 199 201 203 204 203 204 205 206 207 208 210
324 337 341 339 347 28 27 10 1 1 27 17 6 7 15 21 38 77 59 69 98 143 168 181 187 191 194 194 194 195 194 195 197 200 201 204 205 206 206 207 208 210 211 213
335 331 343 350 345 19 3 1 358 -0 12 14 3 5 11 23 47 77 55 58 69 107 161 179 190 194 193 195 197 197 195 196 198 200 202 204 205 205 206 208 210 213 214 216
335 321 334 340 344 3 5 354 355 356 23 8 7 8 10 21 60 50 38 53 65 80 129 162 176 185 190 194 197 198 197 199 201 203 204 204 205 207 208 210 212 214 217 219
331 335 340 344 346 19 0 355 356 32 1 358 6 10 17 36 41 13 31 59 59 72 87 125 162 173 180 188 192 193 195 200 202 203 204 205 205 205 208 211 213 215 217 220
310 316 332 327 341 353 355 359 18 356 352 357 5 15 22 24 35 41 47 61 61 66 80 87 119 161 177 184 191 195 198 204 201 202 203 206 207 208 210 210 212 214 216 218
294 300 290 290 295 322 341 358 354 354 353 358 360 3 14 21 30 36 44 47 56 70 77 86 102 135 161 177 189 196 202 203 202 203 203 205 206 208 210 211 214 216 219 221
298 278 269 288 275 313 320 343 347 350 351 351 358 4 13 22 29 34 39 41 49 58 68 79 103 117 142 163 180 192 201 203 204 204 205 208 209 210 212 215 217 219 219 222
299 286 277 266 263 304 286 328 334 339 345 352 358 7 18 24 31 33 38 40 50 58 60 72 92 132 156 176 182 190 198 201 202 205 207 208 209 210 212 215 218 219 222 223
291 283 270 261 282 273 288 308 320 327 337 349 357 5 13 17 18 19 29 36 38 45 44 53 71 118 164 182 190 197 199 201 202 204 206 207 209 210 213 214 215 218 221 224